Back to catalog

ATLAS CENTAUR 2 DEB

AliveLEO
NORAD 698·DEBRIS·🇺🇸 United States

Launched Nov 27, 1963 from Cape Canaveral Space Force Station

Loading…

Next Passes (next 24 hours)

TLE

FreshSource: Space-Track

Epoch: Sep 14, 2026, 01:26 UTC

1 00698U 63047D   26257.05995151  .00000338  00000-0  94746-4 0  9998
2 00698  29.9209 217.6454 0528579 167.6959 193.7102 13.74427771 91291

Track ATLAS CENTAUR 2 DEB in real time with AllMySat

Download on the App Store